Simultaneous Nadir Overpasses (SNOs) Predictions

Prediction of SNOs between FY3D and AQUA Satellite Orbit:

Table of predicted SNOs for the next 14.0 days since TLE Epoch: 12/7/2019
Index Date (FY3D) Time (FY3D) Lat,Lon (FY3D) SZA (FY3D ) Date (AQUA) Time (AQUA) Lat,Lon (AQUA) SZA (AQUA ) Distance(km) Time Diff (sec)
1 12/08/2019 11:38:34 69.29,-128.56 125.43 12/08/2019 11:38:44 69.30,-128.51 125.40 2.10 10
2 12/08/2019 12:28:23 -72.25, 43.67 57.43 12/08/2019 12:27:17 -72.26, 43.69 57.36 0.70 66
3 12/11/2019 03:54:52 69.68, -12.10 125.39 12/11/2019 03:55:07 69.68, -12.12 125.38 0.96 15
4 12/11/2019 04:44:43 -72.53, 160.11 57.38 12/11/2019 04:43:42 -72.52, 160.05 57.29 2.16 61
5 12/13/2019 20:11:26 69.17, 103.07 126.16 12/13/2019 20:11:45 69.17, 103.08 126.13 0.67 19
6 12/13/2019 21:01:16 -72.09, -84.86 56.67 12/13/2019 21:00:19 -72.09, -84.86 56.60 0.09 57
7 12/16/2019 12:28:00 68.71,-141.67 126.83 12/16/2019 12:28:23 68.71,-141.62 126.78 1.97 23
8 12/16/2019 13:17:50 -71.64, 30.20 56.00 12/16/2019 13:16:57 -71.65, 30.26 55.95 1.92 53
9 12/19/2019 04:44:14 69.31, -24.94 126.44 12/19/2019 04:44:42 69.30, -24.99 126.42 1.98 28




NCC Satellite Simultaneous Nadir Overpasses (SNOs) Prediction Service
